PSLV R/B

Satellite information

Favourite Embed

Satellite Type and Status

ROCKET BODYIN ORBIT

Key statistics

Satellite PSLV R/B at a glance.

Uptime

6691

Days in orbit

Revolutions

≈ 15.0

Per day

Orbit

SSO

Sun Synchronous Orbit

Inclination

98.1

Latest

Satellite identification and parameters

Extended collection of information and parameters for PSLV R/B.

Object identification

Identified? True

Debris? False

Object name: PSLV R/B

International designator: 2007-001E

Object number (NORAD): 29713

Object ID (CCSDS): 29713

Country: INDIA (IND)

Current information (Y/N): Y

RCS size: LARGE

Orbital parameters

Period: 96.27 minutes

Inclination: 98.0519 deg

SMA: 6958.027 km

Apoapsis: 594.644 km

Periapsis: 565.139 km

RAAN: 141.7081 deg

Eccentricy: 0.0021202

Argument of periapsis: 21.1776 deg

Mean anomaly: 339.0317 deg

Mean motion: 14.95800268 rev/day

Mean motion (dot): 0.00003815 rev/day2

B* drag term: 0.00034591 1/REarth

Two-line elements (TLE)

Creation date: May 6, 2025, 3:54 a.m.

Reference frame: TEME

Reference center: EARTH

Epoch: May 5, 2025, 8:57 p.m. UTC

TLE line 0: 0 PSLV R/B

TLE line 1: 1 29713U 07001E 25125.87336638 .00003815 00000-0 34591-3 0 9991

TLE line 2: 2 29713 98.0519 141.7081 0021202 21.1776 339.0317 14.95800268991962

Live tracking on map

Real-time ground track for satellite PSLV R/B.

In-orbit conjunctions

A list of the most updated potential collisions computed for object PSLV R/B.

Target Orbit TCA Probability of collision Miss distance Type
COSMOS 375 MEO 2025-04-09 14:01:24 0.0009614406 161.0 (m) PAYLOAD

Associated space launch

Indian Earth observation and re-entry technology satellites

PSLV R/B was lifted into orbit during the mission ‘PSLV | Cartosat 2 & SRE 1’, on board a PSLV space rocket.

The launch took place on Jan. 10, 2007, 3:54 a.m. from Satish Dhawan Space Centre First Launch Pad.

For more information about the launch, click the button.

Launch to space PSLV | Cartosat 2 & SRE 1
PSLV | Cartosat 2 & SRE 1

Agency: N/A

Status: Launch Successful

Launch date: Jan. 10, 2007, 3:54 a.m. UTC

Rocket: PSLV

Launch pad: Satish Dhawan Space Centre First Launch Pad

Location: Satish Dhawan Space Centre, India

...

Latest news about this satellite

There are no fresh news available about this satellite. Check back as we update our databases every day.


Newsletter sign-up

Weekly statistics, charts and insights to help you stay on top of the space industry.